Regional Weather Roundup
Issued by NWS

Home | Current Version | Previous Version | Text Only | Print | Product List | Glossary Off
Versions: 1 2 3 4 5 6 7 8 9 10 11 12 13 14 15 16 17 18 19 20 21 22 23 24 25 26 27 28 29 30 31 32 33 34 35 36 37 38 39 40 41 42 43 44 45 46 47 48 49 50

000
ASUS45 KABQ 201801
RWRNM
NEW MEXICO REGIONAL WEATHER ROUNDUP
NATIONAL WEATHER SERVICE ALBUQUERQUE NM
1200 PM MDT SUN AUG 20 2017

NOTE: "FAIR" MEANS FEW OR NO CLOUDS BELOW 12,000 FEET AGL WITH NO
       SIGNIFICANT WEATHER OR OBSTRUCTIONS TO VISION.

      THIS PRODUCT IS RELEASED AS TWO VERSIONS.  ONE VERSION NEAR
      THE TOP OF THE HOUR CONTAINING PRELIMINARY DATA FROM ALBUQUERQUE
      AND OTHER STATIONS.  A FINAL VERSION WITH ADDITIONAL DATA IS
      ISSUED ABOUT 10 MINUTES AFTER THE HOUR.

NMZ501-503-504-510>518-201900-
NORTHWEST PLATEAU/NORTHCENTRAL MOUNTAINS

CITY           SKY/WX    TMP DP  RH WIND       PRES   REMARKS
FARMINGTON     FAIR      81  45  28 E8        30.13F
6HR MIN TEMP:  66; 6HR MAX TEMP:  82;

LOS ALAMOS     FAIR      72  44  37 S5        30.29S
SANTA FE       FAIR      75  48  38 SW10      30.23S
6HR MIN TEMP:  59; 6HR MAX TEMP:  75;

TAOS           FAIR      76  47  35 NW7       30.28F
ANGEL FIRE     FAIR      72  42  34 N3        30.35F

$$
NMZ402-403-502-505>509-201900-
WESTCENTRAL MOUNTAINS/SOUTHWEST MOUNTAINS

CITY           SKY/WX    TMP DP  RH WIND       PRES   REMARKS
GALLUP         FAIR      74  43  32 VRB5      30.22F
6HR MIN TEMP:  65; 6HR MAX TEMP:  75;

GRANTS         PTSUNNY   77  40  26 N3        30.24S
SILVER CITY    CLOUDY    67  59  75 SE6       30.21S

$$
NMZ407-409-411-412-201900-
SOUTHERN DESERTS

CITY           SKY/WX    TMP DP  RH WIND       PRES   REMARKS
DEMING         LGT RAIN  65  62  90 NE7       30.17F
6HR MIN TEMP:  62; 6HR MAX TEMP:  65; 6HR PCP:  0.27;

LAS CRUCES     RAIN      64  63  97 CALM      30.18R
HOLLOMAN AFB   FAIR      68  66  93 N8        30.17S
ALAMOGORDO     FAIR      72  63  73 N13       30.15F
T OR C         CLOUDY    74  57  55 CALM      30.18S
6HR MIN TEMP:  69; 6HR MAX TEMP:  74; 6HR PCP: TRACE;


$$
NMZ519>523-201900-
CENTRAL VALLEYS/CENTRAL HIGHLANDS

CITY           SKY/WX    TMP DP  RH WIND       PRES   REMARKS
ALBUQUERQUE    CLOUDY    76  52  43 SW9       30.19S
6HR MIN TEMP:  70; 6HR MAX TEMP:  76;

DOUBLE EAGLE   CLOUDY    73  52  46 SE9       30.22S
CLINES CORNERS FAIR      72  50  45 SW13      30.29S
6HR MIN TEMP:  58; 6HR MAX TEMP:  72;

BELEN          NOT AVBL
SOCORRO        NOT AVBL

$$
NMZ524>526-539-540-201900-
SOUTHCENTRAL MOUNTAINS

CITY           SKY/WX    TMP DP  RH WIND       PRES   REMARKS
RUIDOSO        NOT AVBL

$$
NMZ527>531-201900-
NORTHEAST HIGHLANDS/NORTHEAST PLAINS

CITY           SKY/WX    TMP DP  RH WIND       PRES   REMARKS
LAS VEGAS      FAIR      73  51  46 S13       30.25F
6HR MIN TEMP:  56; 6HR MAX TEMP:  73;

RATON          FAIR      76  48  37 VRB3      30.19F
6HR MIN TEMP:  51; 6HR MAX TEMP:  77;

CLAYTON        FAIR      79  59  50 SW14      30.11S
6HR MIN TEMP:  60; 6HR MAX TEMP:  80;


$$
NMZ532>537-201900-
EASTCENTRAL PLAINS

CITY           SKY/WX    TMP DP  RH WIND       PRES   REMARKS
SANTA ROSA     FAIR      82  53  36 S13G20    30.12S
TUCUMCARI      FAIR      88  58  36 SW17      30.05F
6HR MIN TEMP:  66; 6HR MAX TEMP:  91;

CANNON AFB     FAIR      83  63  50 SW12      30.13S
6HR MIN TEMP:  66; 6HR MAX TEMP:  83;

CLOVIS AIRPORT FAIR      84  63  49 SW15G24   30.12F

$$
NMZ028-029-538-201900-
SOUTHEAST PLAINS

CITY           SKY/WX    TMP DP  RH WIND       PRES   REMARKS
ROSWELL        FAIR      87  56  34 S7G16     30.07F
6HR MIN TEMP:  72; 6HR MAX TEMP:  87;

ARTESIA        FAIR      84  63  48 VRB7      30.08F
CARLSBAD       FAIR      86  66  51 SW9       30.05F
6HR MIN TEMP:  68; 6HR MAX TEMP:  86;

HOBBS          MOSUNNY   86  61  42 S12       30.09F


$$




USA.gov is the U.S. government's official web portal to all federal, state and local government web resources and services.